This demonstration page uses our WeatherBlox Daily Observations layout. Learn more.

Left ArrowRight Arrow

39.08367, -84.50855

Hourly Observations for January 12, 2018

Temp ( °F °C ) Dew Point ( °F °C ) Humidity (%) Winds ( mph kmh ) Pressure ( in mb ) Visibility ( mi km ) Precip ( " mm )
12:53 am 00:53 Mostly Cloudy 54 12.2 54 12.2 100 100 SW 6 9 29.74 1007 10 16.0934 0 0
1:53 am 01:53 Cloudy 55 12.8 54 12.2 96 96 SW 3 6 29.71 1006 10 16.0934 0 0
2:53 am 02:53 Cloudy 53 11.7 53 11.7 100 100 VRB 3 6 29.69 1005 10 16.0934 0 0
3:53 am 03:53 Cloudy 53 11.7 53 11.7 100 100 WSW 6 9 29.66 1004 9 14.48406 0.01 0.254
4:53 am 04:53 Cloudy with Light Rain 53 11.7 53 11.7 100 100 Calm 29.65 1004 1.25 2.011675 0.02 0.508
5:00 am 05:00 Cloudy with Mist and Fog 54 12.2 54 12.2 100 100 Calm 29.65 1004 2 3.21868 0 0.0254
5:05 am 05:05 Cloudy with Mist and Fog 52 11.1 52 11.1 100 100 Calm 29.68 1005 0.75 1.207005 0 0.0254
5:46 am 05:46 Cloudy with Light Rain 50 10 50 10 100 100 Calm 29.68 1005 1.25 2.011675 0 0.0254
5:49 am 05:49 Cloudy with Rain 50 10 50 10 100 100 Calm 29.68 1005 3 4.82802 0.01 0.254
5:53 am 05:53 Cloudy with Rain 53 11.7 52 11.1 96 96 undefined N/A 29.65 1004 4 6.43736 0.02 0.508
6:53 am 06:53 Cloudy with Rain 43 6.1 42 5.6 97 97 NW 14 22 29.72 1007 3 4.82802 0.1 2.54
7:39 am 07:39 Cloudy with Light Rain 38 3.3 36 2.2 93 93 NNW 9 15 29.8 1009 10 16.0934 0.01 0.254
7:53 am 07:53 Cloudy with Light Rain 37 2.8 37 2.8 100 100 N 8 13 29.76 1008 10 16.0934 0.01 0.254
8:53 am 08:53 Cloudy with Light Rain 36 2.2 34 1.1 93 93 N 12 19 29.8 1009 8 12.87472 0.02 0.508
9:07 am 09:07 Cloudy with Rain 36 2.2 34 1.1 93 93 NNW 10 17 29.83 1010 2 3.21868 0.01 0.254
9:29 am 09:29 Cloudy with Light Rain 36 2.2 34 1.1 93 93 N 13 20 29.83 1010 4 6.43736 0.02 0.508
9:53 am 09:53 Cloudy with Light Rain 35 1.7 33 0.6 93 93 N 12 19 29.82 1010 4 6.43736 0.03 0.762
10:53 am 10:53 Cloudy with Light Rain 35 1.7 33 0.6 93 93 N 13 20 29.83 1010 3 4.82802 0.01 0.254
11:49 am 11:49 Cloudy with Rain 36 2 34 1 93 93 N 9 15 29.85 1011 1.75 2.816345 0.02 0.508
11:50 am 11:50 Cloudy with Rain 35 1.7 33 0.6 93 93 N 8 13 29.83 1010 1.5 2.41401 0.02 0.508
12:34 pm 12:34 Cloudy with Light Snow 36 2.2 34 1.1 93 93 N 10 17 29.83 1010 2 3.21868 0.04 1.016
12:50 pm 12:50 Cloudy with Rain 36 2 34 1 93 93 NNE 9 15 29.83 1010 1.5 2.41401 0.06 1.524
12:53 pm 12:53 Cloudy with Rain 36 2.2 34 1.1 93 93 N 10 17 29.8 1009 1.5 2.41401 0.06 1.524
1:08 pm 13:08 Cloudy with Light Snow 36 2.2 34 1.1 93 93 N 13 20 29.8 1009 2.5 4.02335 0 0.0254
1:39 pm 13:39 Cloudy with Light Rain 36 2.2 34 1.1 93 93 NNW 13 20 29.8 1009 2.5 4.02335 0.01 0.254
1:53 pm 13:53 Cloudy with Rain 36 2.2 34 1.1 93 93 NNW 14 22 29.8 1009 2.5 4.02335 0.03 0.762
2:53 pm 14:53 Cloudy with Light Rain 35 1.7 33 0.6 93 93 N 13 20 29.82 1010 5 8.0467 0.03 0.762
3:53 pm 15:53 Cloudy with Light Rain 34 1.1 31 -0.6 89 89 N 18 30 29.8 1009 10 16.0934 0.01 0.254
4:49 pm 16:49 Windy with Snow Likely 32 0 28 -2 87 87 N 22 35 29.85 1011 1.75 2.816345 0.02 0.508
4:53 pm 16:53 Cloudy with Light Snow 32 0 29 -1.7 88 88 N 17 28 29.83 1010 1.5 2.41401 0.03 0.762
5:53 pm 17:53 Mostly Cloudy with Light Snow 29 -1.7 27 -2.8 92 92 N 16 26 29.88 1012 1 1.60934 0.03 0.762
6:12 pm 18:12 Mostly Cloudy with Light Snow 28 -2.2 27 -2.8 96 96 N 14 22 29.94 1014 1 1.60934 0.01 0.254
6:29 pm 18:29 Mostly Cloudy with Light Snow 28 -2.2 26 -3.3 92 92 N 13 20 29.97 1015 1 1.60934 0.02 0.508
6:53 pm 18:53 Mostly Cloudy with Light Snow 27 -2.8 25 -3.9 92 92 N 18 30 29.92 1013 1 1.60934 0.03 0.762
7:08 pm 19:08 Windy with Snow Likely 27 -2.8 24 -4.4 89 89 N 24 39 29.97 1015 1.25 2.011675 0 0.0254
7:53 pm 19:53 Windy with Snow Likely 26 -3.3 22 -5.6 84 84 N 22 35 29.99 1016 1.5 2.41401 0 0.0254
8:40 pm 20:40 Mostly Cloudy with Light Snow 24 -4.4 21 -6.1 88 88 N 17 28 30.03 1017 0.75 1.207005 0 0.0254
8:53 pm 20:53 Mostly Cloudy with Light Snow 24 -4.4 21 -6.1 88 88 N 17 28 30.04 1017 0.75 1.207005 0 0.0254
9:53 pm 21:53 Cloudy with Light Snow 22 -5.6 18 -7.8 85 85 N 18 30 30.05 1018 2.5 4.02335 0.01 0.254
10:15 pm 22:15 Windy with Snow Likely 22 -5.6 16 -8.9 78 78 N 24 39 30.09 1019 4 6.43736 0 0.0254
10:53 pm 22:53 Cloudy with Light Snow 22 -5.6 16 -8.9 78 78 NNW 10 17 30.11 1020 9 14.48406 0 0.0254
11:53 pm 23:53 Cloudy 21 -6.1 13 -10.6 71 71 N 18 30 30.14 1021 10 16.0934 0 0.0254

Powered by AerisWeather